Wind_Speed
29 30 31 33 36 38 40 43 46 50 55 60 65 68 71 73 73 74 73 72 71 68 63 60 59 59 59 59 60 59 57 55 54 53 52 53 54 55 56 56 56 55 53 49
28 28 29 31 34 37 39 43 47 51 56 61 66 69 71 72 73 73 72 71 69 65 61 59 58 58 58 59 59 58 57 56 55 54 54 55 57 58 59 60 60 59 54 48
32 30 30 32 36 39 40 43 48 53 57 62 67 69 71 72 72 72 71 70 67 62 59 58 58 58 58 59 59 59 58 57 56 56 57 58 60 62 63 64 63 56 47 39
36 35 33 36 38 40 42 44 50 54 58 63 67 70 71 71 71 71 70 68 64 60 57 57 57 57 58 58 59 59 58 58 58 59 60 61 63 65 66 66 61 50 39 29
41 39 37 37 40 43 46 46 51 55 59 63 67 70 70 70 70 69 68 66 62 58 56 56 56 57 57 57 58 58 58 59 61 61 62 63 65 67 68 66 58 46 35 23
42 41 40 40 42 44 47 49 53 56 60 64 67 69 69 69 68 67 67 65 60 56 54 55 55 56 56 56 57 58 59 61 63 64 64 65 67 69 69 66 57 45 34 22
45 41 39 42 43 46 47 51 54 57 60 64 67 68 68 67 67 66 66 63 59 55 53 54 55 55 55 55 57 58 60 61 63 64 65 66 68 69 70 66 58 46 34 23
50 48 45 46 46 46 48 50 53 57 60 63 66 67 66 66 65 65 64 62 58 54 53 53 54 54 54 55 56 58 59 61 63 64 65 66 67 69 69 66 59 48 37 26
50 47 47 47 46 47 48 50 53 56 60 64 66 66 65 65 64 64 63 61 56 52 51 52 53 53 54 54 55 57 59 60 62 63 65 66 67 68 68 67 61 53 42 31
51 49 47 47 47 47 48 50 53 56 60 63 65 65 64 64 64 63 62 59 55 51 50 51 52 52 53 53 54 56 58 59 60 62 64 66 66 67 68 67 64 58 49 37
51 50 49 47 47 48 49 51 53 56 59 62 64 64 63 63 63 62 61 58 54 50 49 49 50 51 52 52 53 54 56 58 59 61 63 65 66 67 67 67 67 62 55 47
52 51 50 49 49 49 50 51 53 56 59 62 63 63 62 62 62 61 60 57 53 49 48 48 49 50 51 51 52 53 54 56 57 59 61 62 64 66 66 66 65 63 60 54
53 53 51 51 50 49 50 51 53 55 58 61 63 62 62 61 61 60 59 56 52 48 46 46 47 49 50 50 50 51 53 54 56 57 58 60 62 63 64 64 64 62 61 58
54 54 52 51 50 50 50 51 53 55 58 60 62 61 61 60 59 59 57 55 51 47 45 45 46 47 49 49 49 49 51 52 54 55 57 58 60 61 62 63 63 62 60 58
55 55 53 52 51 50 50 51 52 54 57 60 61 60 60 59 58 57 56 54 51 47 44 43 44 45 47 48 48 48 48 50 51 53 54 56 58 59 60 61 61 61 60 59
55 55 54 53 51 50 50 51 52 54 56 59 60 60 59 57 56 56 55 53 50 46 43 42 42 43 45 46 47 47 47 48 49 50 52 53 55 56 57 59 59 60 60 59
56 55 54 52 51 50 50 50 51 53 56 58 59 59 58 56 55 54 53 51 49 45 42 40 39 40 42 44 45 46 46 46 47 48 50 51 52 54 55 56 57 58 59 59
57 56 54 53 51 50 49 50 51 53 55 57 59 58 57 55 54 53 52 51 48 45 41 39 38 38 40 42 43 45 45 45 46 47 48 49 50 51 53 54 55 56 57 57
58 56 54 52 51 49 49 49 50 52 54 57 58 57 56 54 53 52 51 50 48 44 41 38 37 36 37 39 41 42 44 45 45 46 47 48 49 49 50 52 53 54 55 55
58 56 54 52 50 48 48 48 49 51 54 56 57 57 55 53 52 51 50 49 47 44 41 38 36 35 35 36 38 40 42 43 44 45 46 47 48 49 50 50 51 52 52 53
58 55 53 51 49 47 47 48 49 51 53 56 57 56 54 52 51 50 49 47 46 43 41 38 35 33 33 34 35 37 39 41 42 43 45 46 47 48 49 50 50 51 51 51
58 54 52 50 48 46 46 47 49 51 53 55 56 56 54 52 50 48 47 46 44 42 40 38 35 33 32 32 33 35 37 39 40 42 43 44 46 47 48 49 49 50 50 50
57 54 52 49 47 46 46 47 49 50 53 55 56 55 54 51 49 47 45 45 43 41 40 38 36 33 31 31 31 33 34 36 38 40 41 43 45 46 47 48 48 49 49 49
56 53 51 48 46 46 46 47 48 50 52 55 56 55 53 51 48 46 44 43 42 41 39 38 36 34 32 31 30 31 33 34 35 37 39 41 43 44 45 46 47 47 47 48
56 52 49 47 46 46 46 47 48 50 52 54 55 55 53 50 47 45 44 42 41 40 39 38 37 35 33 32 30 30 31 32 33 35 36 38 41 42 44 44 45 46 46 46
54 51 48 47 46 45 46 47 48 50 52 54 54 54 52 49 46 44 43 42 41 39 38 37 36 35 34 33 31 30 30 31 32 34 35 36 38 40 41 42 43 44 44 44
53 49 47 46 45 45 45 46 48 50 52 53 54 54 52 49 46 44 42 41 40 39 38 36 36 35 35 34 33 32 31 31 31 32 33 34 36 37 39 40 41 42 42 42
Wind_Direction
330 330 330 328 327 328 329 331 333 337 340 341 342 343 343 343 343 343 343 342 343 343 344 344 345 345 345 346 346 347 347 346 345 343 341 338 335 332 329 325 320 314 307 300
336 333 331 327 326 328 331 333 335 339 341 341 342 344 343 343 344 344 344 344 344 344 345 346 346 347 348 348 349 349 350 349 347 345 343 340 337 335 331 328 323 317 308 298
343 338 335 331 332 333 335 336 338 340 341 342 343 344 344 344 344 344 345 345 345 346 346 347 348 349 350 350 352 352 352 351 350 348 346 344 341 339 336 334 330 325 317 305
347 342 341 336 334 334 337 339 339 340 341 342 343 344 345 344 345 346 346 346 347 347 348 349 350 351 351 353 354 354 353 354 353 352 350 348 346 345 343 342 340 336 331 319
349 344 340 337 337 337 338 340 340 341 341 342 343 344 345 345 346 347 347 347 348 349 350 351 352 352 353 354 354 354 355 356 356 355 354 353 352 351 351 350 349 347 345 338
350 344 340 340 338 338 338 340 341 341 341 342 343 344 345 346 347 347 348 349 350 351 352 353 354 354 355 355 355 357 358 359 358 358 358 358 358 358 357 357 358 357 356 356
350 345 341 340 339 339 338 339 340 340 341 342 343 345 346 346 348 348 349 350 351 352 353 355 356 356 356 356 357 359 0 1 1 1 1 2 3 3 3 4 5 5 6 10
349 347 344 342 339 339 338 338 339 340 341 342 344 345 346 347 348 350 351 351 352 353 355 356 357 358 357 358 360 1 2 3 3 3 5 6 7 8 9 10 11 13 15 18
348 345 343 341 339 338 337 337 339 340 340 342 344 346 347 348 349 351 352 353 353 354 356 358 359 359 359 0 2 3 4 5 5 6 7 9 11 12 13 15 17 19 21 24
347 345 343 341 339 337 337 337 338 339 340 342 344 346 347 349 350 352 353 354 354 356 357 359 0 1 1 2 3 4 6 6 7 8 10 12 14 15 17 19 21 23 25 27
345 343 342 341 339 337 337 338 338 339 341 343 345 346 347 349 351 353 354 355 355 357 358 360 1 2 3 3 5 6 7 8 9 10 12 14 15 18 20 21 23 26 27 30
343 342 341 340 339 338 338 338 338 339 340 343 345 346 348 350 352 353 355 356 356 357 359 1 2 3 4 5 6 7 8 9 11 13 14 16 18 19 21 23 25 27 28 30
340 341 340 340 339 338 338 338 338 339 340 343 345 347 348 350 352 354 355 356 357 358 359 1 3 5 6 7 7 8 9 10 12 14 16 18 20 22 23 24 26 28 29 31
339 339 339 339 338 338 338 337 338 339 340 343 345 347 348 350 352 354 355 357 358 358 360 1 3 5 7 8 8 9 10 11 13 15 17 19 21 23 24 25 27 28 29 30
337 338 338 338 337 337 337 337 338 339 340 343 345 347 348 350 352 354 355 357 358 358 360 1 4 6 8 8 9 10 11 12 14 16 18 20 21 23 24 25 27 28 29 30
335 336 336 336 336 336 337 337 338 338 340 343 345 347 348 349 351 353 355 357 358 358 359 1 3 6 9 10 11 11 11 12 14 15 17 19 21 23 24 25 26 27 28 29
334 334 334 334 334 335 336 336 337 338 340 343 345 346 348 349 351 353 355 356 357 358 359 0 3 6 9 11 12 12 12 13 14 15 16 18 19 22 23 25 26 27 27 28
332 332 332 333 333 334 335 336 337 338 340 342 344 346 347 348 350 352 354 355 357 358 358 359 2 5 9 11 12 13 13 14 15 16 17 18 19 20 22 23 25 26 26 27
330 330 329 330 331 332 334 335 336 337 339 342 343 345 346 347 349 351 353 354 356 357 357 358 1 4 7 10 11 12 14 15 16 16 17 18 18 19 21 22 23 24 24 25
328 327 327 328 329 331 333 334 335 336 338 341 342 343 344 346 347 349 351 353 354 356 356 356 358 1 4 6 9 11 13 14 15 16 16 17 18 19 19 20 21 21 22 23
326 325 325 327 328 329 331 333 334 335 337 340 341 342 343 344 346 348 350 351 352 354 355 355 356 358 360 2 5 7 11 13 14 15 15 16 16 17 18 19 19 19 20 21
323 323 323 325 326 328 330 332 333 334 336 338 340 341 342 342 344 346 348 349 350 352 353 353 353 354 355 357 360 3 7 10 11 13 13 14 15 16 17 17 18 18 18 19
320 320 321 323 324 326 328 330 332 333 335 337 339 340 340 341 342 344 346 348 348 349 351 351 351 351 351 352 354 357 1 4 7 9 10 11 12 13 14 15 16 16 16 16
317 317 319 320 322 324 327 329 330 332 333 335 337 338 339 339 340 342 344 346 346 347 348 349 350 349 348 347 348 351 354 358 1 3 5 7 8 9 10 12 13 13 14 14
314 314 315 317 320 322 325 327 329 330 332 334 335 336 337 337 338 340 342 344 344 344 345 347 347 347 346 344 343 345 347 350 353 356 359 1 3 5 6 8 9 9 10 11
310 311 312 314 317 320 322 325 327 328 330 332 333 334 335 335 336 337 339 341 342 342 342 343 345 345 345 344 341 340 341 343 345 348 351 354 356 359 1 4 5 6 7 8
306 307 309 312 314 317 320 323 324 326 328 330 331 332 333 334 334 335 337 339 340 340 339 340 341 342 343 343 341 338 337 337 338 340 343 346 349 352 355 358 0 3 4 6
Height
5840 5835 5830 5824 5818 5812 5805 5796 5788 5779 5768 5756 5743 5731 5716 5701 5685 5669 5653 5638 5622 5607 5593 5580 5567 5553 5540 5527 5514 5501 5488 5476 5464 5452 5440 5429 5417 5405 5392 5380 5368 5357 5349 5342
5838 5833 5827 5821 5815 5808 5801 5792 5782 5773 5763 5751 5738 5725 5710 5695 5680 5664 5649 5632 5617 5602 5588 5575 5563 5550 5537 5524 5510 5497 5484 5471 5459 5447 5434 5422 5408 5394 5380 5365 5350 5335 5323 5317
5833 5828 5824 5817 5810 5802 5796 5787 5777 5768 5758 5745 5732 5720 5705 5690 5675 5660 5644 5628 5612 5598 5584 5571 5559 5546 5533 5520 5507 5493 5481 5468 5455 5442 5428 5414 5399 5383 5366 5348 5329 5312 5299 5292
5828 5823 5817 5814 5804 5797 5790 5782 5772 5762 5752 5740 5727 5714 5700 5685 5671 5655 5639 5624 5609 5595 5581 5569 5556 5543 5530 5517 5504 5491 5478 5465 5451 5437 5423 5407 5390 5373 5353 5333 5312 5295 5284 5277
5823 5816 5812 5807 5799 5791 5783 5777 5767 5757 5746 5735 5722 5709 5696 5681 5666 5651 5635 5620 5605 5592 5579 5566 5553 5541 5528 5515 5503 5490 5476 5462 5448 5433 5418 5402 5384 5365 5345 5324 5303 5287 5276 5269
5820 5812 5806 5803 5794 5786 5779 5771 5762 5751 5741 5730 5718 5705 5692 5676 5661 5646 5631 5616 5603 5589 5577 5564 5552 5539 5526 5514 5502 5488 5474 5460 5445 5430 5415 5398 5380 5360 5339 5318 5299 5284 5274 5267
5817 5810 5804 5797 5789 5781 5774 5767 5756 5747 5736 5725 5713 5700 5686 5671 5657 5642 5628 5613 5599 5587 5575 5563 5550 5538 5526 5514 5500 5487 5473 5459 5444 5430 5414 5396 5378 5359 5339 5319 5300 5286 5275 5269
5812 5805 5800 5791 5783 5777 5770 5761 5752 5742 5732 5720 5708 5694 5681 5667 5653 5638 5624 5610 5596 5584 5573 5561 5549 5537 5525 5513 5500 5487 5473 5459 5445 5430 5415 5398 5380 5362 5343 5324 5306 5292 5281 5274
5811 5804 5795 5787 5780 5773 5765 5756 5747 5738 5727 5716 5703 5690 5677 5664 5650 5636 5621 5608 5595 5583 5571 5560 5548 5537 5525 5513 5500 5488 5474 5461 5447 5433 5417 5401 5385 5368 5350 5332 5314 5300 5288 5281
5807 5799 5792 5783 5775 5768 5760 5752 5743 5733 5723 5711 5699 5686 5673 5660 5647 5633 5619 5605 5593 5581 5570 5560 5548 5537 5525 5513 5501 5489 5476 5464 5450 5436 5421 5405 5390 5374 5357 5341 5324 5309 5298 5290
5804 5796 5788 5780 5772 5764 5756 5747 5738 5729 5718 5707 5695 5682 5670 5657 5644 5630 5617 5604 5592 5581 5570 5560 5549 5537 5526 5514 5503 5491 5479 5467 5454 5440 5425 5410 5395 5379 5364 5348 5333 5320 5309 5300
5800 5792 5784 5776 5768 5759 5751 5743 5734 5724 5714 5703 5691 5679 5666 5654 5641 5628 5615 5602 5590 5579 5569 5559 5549 5538 5527 5516 5505 5494 5483 5471 5458 5444 5431 5417 5402 5387 5373 5359 5345 5333 5321 5311
5795 5787 5779 5771 5763 5755 5747 5738 5729 5720 5710 5699 5687 5675 5663 5651 5638 5625 5613 5601 5589 5579 5569 5559 5550 5539 5528 5517 5506 5496 5485 5474 5462 5449 5437 5424 5411 5398 5384 5371 5358 5346 5334 5324
5790 5782 5773 5766 5758 5750 5742 5734 5725 5716 5706 5695 5684 5671 5660 5648 5636 5624 5612 5600 5589 5578 5569 5560 5550 5540 5530 5519 5509 5499 5488 5478 5466 5455 5443 5431 5418 5406 5394 5382 5370 5358 5347 5337
5785 5777 5769 5761 5753 5745 5737 5729 5721 5711 5702 5691 5680 5668 5657 5645 5633 5622 5610 5599 5588 5578 5569 5560 5550 5541 5531 5521 5511 5502 5492 5482 5471 5460 5449 5438 5426 5414 5403 5392 5380 5369 5358 5348
5780 5771 5763 5756 5748 5740 5732 5724 5716 5707 5698 5687 5676 5665 5654 5642 5631 5620 5609 5598 5588 5578 5569 5560 5552 5543 5533 5524 5514 5504 5495 5485 5475 5465 5455 5444 5434 5423 5412 5401 5390 5380 5369 5359
5774 5766 5758 5750 5743 5735 5728 5720 5712 5703 5693 5683 5673 5662 5651 5640 5629 5619 5608 5597 5587 5578 5569 5561 5552 5544 5535 5526 5517 5507 5498 5489 5479 5470 5460 5450 5440 5430 5419 5409 5399 5389 5379 5369
5768 5760 5752 5745 5737 5730 5723 5715 5707 5698 5689 5679 5669 5659 5648 5638 5628 5617 5607 5597 5587 5578 5569 5561 5553 5545 5536 5528 5519 5510 5502 5493 5484 5475 5465 5456 5446 5436 5426 5416 5407 5397 5387 5378
5761 5753 5746 5739 5732 5725 5717 5710 5702 5694 5685 5675 5665 5655 5645 5635 5626 5616 5606 5596 5586 5577 5569 5560 5553 5545 5537 5529 5521 5513 5505 5496 5488 5479 5470 5461 5451 5442 5432 5423 5413 5404 5395 5385
5754 5747 5740 5733 5726 5719 5712 5705 5697 5689 5680 5671 5661 5651 5642 5632 5623 5613 5604 5594 5585 5576 5567 5559 5552 5545 5538 5531 5524 5516 5508 5500 5491 5483 5474 5465 5457 5447 5438 5429 5419 5410 5401 5392
5747 5740 5733 5727 5720 5713 5706 5699 5692 5684 5675 5667 5657 5648 5638 5629 5620 5610 5601 5592 5583 5575 5567 5559 5552 5545 5539 5532 5525 5518 5510 5503 5495 5487 5478 5470 5461 5452 5443 5434 5425 5416 5407 5399
5740 5733 5727 5720 5714 5707 5701 5694 5687 5679 5670 5662 5653 5644 5634 5626 5617 5608 5599 5591 5582 5574 5566 5559 5551 5545 5539 5532 5526 5519 5512 5505 5497 5490 5482 5474 5465 5456 5448 5439 5430 5421 5413 5404
5732 5726 5720 5714 5708 5701 5695 5688 5681 5673 5665 5657 5648 5639 5630 5622 5613 5605 5597 5589 5580 5573 5565 5558 5550 5544 5538 5532 5526 5520 5513 5506 5499 5492 5485 5477 5469 5460 5452 5443 5434 5426 5418 5409
5724 5718 5713 5707 5701 5695 5689 5682 5675 5668 5660 5652 5643 5635 5626 5618 5610 5602 5594 5586 5578 5571 5563 5556 5549 5543 5537 5531 5525 5519 5513 5507 5500 5494 5486 5479 5471 5463 5455 5447 5439 5431 5422 5414
5716 5710 5705 5700 5694 5688 5682 5676 5669 5662 5654 5647 5638 5630 5621 5613 5606 5598 5590 5583 5575 5568 5561 5554 5548 5541 5535 5529 5524 5518 5513 5507 5501 5494 5487 5481 5473 5466 5458 5450 5442 5434 5426 5418
5707 5702 5697 5692 5687 5681 5675 5669 5662 5655 5648 5641 5633 5624 5617 5609 5601 5594 5587 5580 5573 5566 5559 5552 5546 5539 5533 5527 5522 5516 5511 5505 5499 5494 5487 5481 5474 5467 5460 5453 5445 5437 5429 5421
5698 5693 5689 5684 5679 5673 5668 5662 5656 5649 5642 5635 5627 5619 5611 5604 5597 5590 5583 5576 5570 5563 5556 5550 5543 5537 5531 5525 5519 5514 5508 5503 5497 5492 5486 5481 5474 5468 5461 5454 5446 5439 5431 5424